Content
SEND FEEDBACK

Daily
Averages
Monthly
Summary
United States of America

JACKSON, OHIO


Home > North America > United States > Ohio
Elevation: 670 feet     Latitude: 39 03N     Longitude: 082 38W

WEATHER
 
SELECT A DAY
Number of Records: 183,402;   Date Range: 1/26/07 - 7/7/14
 
SHARE

PRINT THIS DATA

[ ← Previous Day ]
WEATHER ALMANAC - JANUARY 23, 2013
[ Next Day → ]
[ °C ]   °F
Weather ElementAverageHighLow
Temperature15.2 °F21.2 °F (2:35 pm)7.3 °F (6:55 am)
Dewpoint7 °F15.8 °F (10:15 pm)0.3 °F (1:35 pm)
Humidity72.3 %91 % (10:15 pm)41 % (1:35 pm)
Barometer30.24 in30.34 in (9:35 am)30.08 in (11:55 pm)
Wind Speed2.8 mph11.5 mph (10:55 am)
Wind Gust17.3 mph (1:35 pm)
Weather ElementAverage
Visibility8.1 mi
Wind DirectionE (88.6 °)

Weather ElementTotal
Precipitation---
Heating Degree Days50.8 (Base 65)
Averaged from 70 records on January 23, 2013
WEATHER CONDITIONS BREAKOUT
WIND DIRECTION BREAKOUT
WEATHER BY HOUR - JANUARY 23, 2013
[ °C ]   °F
Local TimeTemperatureDewpointHumidityBarometerVisibilityWind DirectionWind SpeedGust SpeedPrecipitationEventsConditions
12:35 AM10.8 °F3.2 °F72 %30.31 in10.0 miCalmClear
12:55 AM10.4 °F2.8 °F72 %30.31 in10.0 miCalmClear
1:15 AM9.9 °F3.0 °F74 %30.31 in10.0 miCalmClear
1:35 AM9.1 °F3.2 °F77 %30.31 in10.0 miCalmClear
1:55 AM8.6 °F2.8 °F77 %30.31 in10.0 miCalmClear
2:15 AM8.8 °F3.7 °F80 %30.32 in10.0 miCalmClear
2:35 AM8.1 °F2.3 °F77 %30.33 in10.0 miCalmMostly Cloudy
2:55 AM9.0 °F4.1 °F81 %30.33 in10.0 miCalmOvercast
3:15 AM9.5 °F4.8 °F81 %30.33 in10.0 miCalmOvercast
3:35 AM9.5 °F4.6 °F81 %30.33 in10.0 miCalmMostly Cloudy
3:55 AM9.3 °F5.2 °F83 %30.33 in10.0 miCalmMostly Cloudy
4:15 AM10.2 °F5.7 °F82 %30.32 in10.0 miCalmOvercast
4:35 AM10.4 °F5.7 °F81 %30.32 in10.0 miCalmOvercast
4:55 AM10.4 °F3.0 °F72 %30.32 in10.0 miCalmMostly Cloudy
5:15 AM9.5 °F4.1 °F79 %30.32 in10.0 miCalmScattered Clouds
5:35 AM9.0 °F4.6 °F83 %30.32 in10.0 miCalmClear
5:55 AM8.6 °F4.8 °F85 %30.32 in10.0 miCalmClear
6:15 AM8.2 °F4.5 °F85 %30.32 in10.0 miCalmClear
6:35 AM7.5 °F4.1 °F86 %30.32 in10.0 miCalmClear
6:55 AM7.3 °F4.1 °F87 %30.33 in10.0 miCalmScattered Clouds
7:15 AM7.7 °F4.8 °F88 %30.33 in10.0 miCalmMostly Cloudy
7:35 AM8.1 °F4.8 °F87 %30.33 in10.0 miCalmMostly Cloudy
7:55 AM8.6 °F5.5 °F87 %30.33 in10.0 miCalmOvercast
8:15 AM9.5 °F6.4 °F87 %30.33 in10.0 miCalmOvercast
8:35 AM10.9 °F6.1 °F81 %30.33 in10.0 miCalmOvercast
8:55 AM12.2 °F6.1 °F76 %30.33 in10.0 miCalmOvercast
9:15 AM13.1 °F5.5 °F72 %30.33 in10.0 miSouth (190°)4.6 mphOvercast
9:35 AM13.8 °F5.7 °F70 %30.34 in10.0 miSSW (210°)3.5 mphOvercast
10:15 AM15.3 °F5.5 °F65 %30.33 in10.0 miSW (220°)3.5 mphOvercast
10:35 AM16.3 °F6.4 °F65 %30.34 in10.0 miWSW (240°)6.9 mphOvercast
10:55 AM16.7 °F3.6 °F56 %30.33 in10.0 miWSW (250°)11.5 mph16.1 mphOvercast
11:15 AM17.4 °F3.7 °F55 %30.32 in10.0 miSW (220°)6.9 mphOvercast
11:35 AM18.0 °F3.4 °F53 %30.31 in10.0 miWSW (250°)9.2 mphOvercast
11:55 AM18.1 °F2.8 °F51 %30.29 in10.0 miWest (260°)10.4 mphOvercast
12:15 PM19.0 °F2.7 °F49 %30.27 in10.0 miWSW (240°)8.1 mphOvercast
12:35 PM20.5 °F2.5 °F46 %30.26 in10.0 miSW (220°)9.2 mphOvercast
12:55 PM20.5 °F1.4 °F44 %30.24 in10.0 miSSW (210°)6.9 mphOvercast
1:15 PM20.8 °F1.6 °F43 %30.24 in10.0 miWSW (240°)8.1 mphOvercast
1:35 PM20.8 °F0.3 °F41 %30.23 in10.0 miWSW (250°)9.2 mph17.3 mphOvercast
1:55 PM20.7 °F0.3 °F41 %30.22 in10.0 miWSW (240°)5.8 mphOvercast
2:15 PM21.0 °F1.0 °F42 %30.22 in10.0 miWSW (250°)8.1 mphOvercast
2:35 PM21.2 °F0.7 °F41 %30.21 in10.0 miSSW (210°)6.9 mphOvercast
2:55 PM21.0 °F0.7 °F41 %30.20 in10.0 miWSW (240°)11.5 mphOvercast
3:15 PM21.2 °F0.9 °F41 %30.20 in10.0 miSW (220°)8.1 mphOvercast
3:35 PM21.2 °F1.0 °F42 %30.19 in10.0 miWSW (240°)8.1 mphOvercast
3:55 PM21.2 °F1.9 °F43 %30.19 in10.0 miSSW (210°)8.1 mphOvercast
4:15 PM21.2 °F3.6 °F47 %30.18 in10.0 miWSW (240°)9.2 mphOvercast
4:35 PM20.8 °F5.0 °F50 %30.17 in10.0 miSSW (210°)8.1 mphOvercast
4:55 PM20.3 °F7.7 °F58 %30.17 in10.0 miSSW (210°)9.2 mphSnowLight Snow
5:15 PM19.4 °F10.8 °F69 %30.16 in4.0 miWSW (240°)5.8 mphSnowLight Snow
5:35 PM19.0 °F12.6 °F76 %30.15 in5.0 miSW (220°)3.5 mphSnowLight Snow
5:55 PM18.5 °F13.1 °F79 %30.14 in2.5 miSW (230°)4.6 mphSnowLight Snow
6:15 PM18.5 °F14.0 °F83 %30.15 in1.5 miWSW (240°)3.5 mphSnowLight Snow
6:35 PM18.5 °F14.5 °F85 %30.15 in2.0 miCalmSnowLight Snow
6:55 PM18.5 °F14.5 °F85 %30.14 in3.0 miCalmSnowLight Snow
7:15 PM18.5 °F14.9 °F86 %30.14 in2.5 miCalmSnowLight Snow
7:35 PM18.5 °F14.9 °F86 %30.13 in3.0 miCalmSnowLight Snow
7:55 PM18.5 °F14.9 °F86 %30.12 in2.5 miCalmSnowLight Snow
8:15 PM18.3 °F15.1 °F87 %30.11 in2.0 miCalmSnowLight Snow
8:35 PM18.3 °F15.3 °F88 %30.11 in1.5 miCalmSnowLight Snow
8:55 PM18.3 °F15.4 °F89 %30.11 in1.5 miCalmSnowLight Snow
9:15 PM18.1 °F15.4 °F89 %30.10 in2.5 miCalmSnowLight Snow
9:35 PM18.3 °F15.6 °F89 %30.11 in2.5 miCalmSnowLight Snow
9:55 PM18.1 °F15.6 °F90 %30.10 in2.0 miCalmSnowLight Snow
10:15 PM18.1 °F15.8 °F91 %30.09 in2.5 miCalmSnowLight Snow
10:35 PM18.3 °F15.4 °F89 %30.09 in3.0 miCalmSnowLight Snow
10:55 PM18.1 °F15.1 °F88 %30.10 in10.0 miCalmSnowLight Snow
11:15 PM17.6 °F15.3 °F91 %30.09 in10.0 miCalmSnowLight Snow
11:35 PM18.1 °F15.6 °F90 %30.09 in5.0 miCalmSnowLight Snow
11:55 PM18.0 °F15.3 °F89 %30.08 in7.0 miCalmSnowLight Snow
Hourly data recorded from KUNI, located miles away from Jackson, Ohio







STORIES FROM OUR PARTNERS